Date String (YYYY-MM-DD hh:mm:ss) UTC,Instrument flags,absolute air pressure of the measurement (hPa),sample flow rate (lpm),inlet stack bypass flow (lpm),air temperature of the measurement (°C),ambient temperature measured by the external sensor (°C),aerosol sample conditioner tube jacket temperature (°C),OPC LED temperature (°C),internal box temperature (°C),relative humidity of the measurement (%),span deviation,mass concentration of particles derived from Lorenz-Mie calculation of OPC scattering (μg/m³),mass concentration of particles derived from Lorenz-Mie calculation of OPC scattering (μg/m³),mass concentration of particles derived from Lorenz-Mie calculation of OPC scattering (μg/m³)
DateTimeUTC,F1_M11,P_M11,Q1_M11,Q2_M11,T1_M11,T2_M11,T3_M11,T4_M11,T5_M11,U1_M11,ZSPAN_M11,X0_M11,X2_M11,X1_M11
2023-09-19 01:00:00,SystemResetWarning,0828.7,5.00,000.00,027.8,026.6,000.0,036.1,029.5,19.4,0000.0,0007.87,0002.53,0001.74
2023-09-19 01:01:00,SystemResetWarning,0828.6,4.99,000.00,027.9,026.7,000.0,036.1,029.6,19.5,0000.0,0007.93,0002.56,0001.75
2023-09-19 01:02:00,SystemResetWarning,0828.7,5.00,000.00,027.9,026.8,000.0,036.1,029.6,19.3,0000.0,0007.88,0002.53,0001.73
2023-09-19 01:03:00,SystemResetWarning,0828.7,5.02,000.00,027.9,026.8,000.0,036.2,029.7,19.3,0000.0,0007.92,0002.52,0001.72
2023-09-19 01:04:00,SystemResetWarning,0828.6,5.00,000.00,028.0,026.4,000.0,036.2,029.5,19.3,0000.0,0007.99,0002.55,0001.72
2023-09-19 01:05:00,SystemResetWarning,0828.6,4.98,000.00,027.8,024.8,000.0,036.1,029.0,19.4,0000.0,0007.86,0002.52,0001.71
2023-09-19 01:06:00,SystemResetWarning,0828.6,5.02,000.00,027.8,024.4,000.0,036.1,029.0,19.4,0000.0,0008.28,0002.47,0001.70
2023-09-19 01:07:00,SystemResetWarning,0828.6,5.00,000.00,027.7,024.5,000.0,036.1,029.0,19.5,0000.0,0008.61,0002.48,0001.69
2023-09-19 01:08:00,SystemResetWarning,0828.6,5.00,000.00,027.6,024.8,000.0,036.1,029.1,19.6,0000.0,0008.55,0002.49,0001.69
2023-09-19 01:09:00,SystemResetWarning,0828.6,5.00,000.00,027.6,025.1,000.0,036.1,029.2,19.5,0000.0,0008.20,0002.52,0001.69
2023-09-19 01:10:00,SystemResetWarning,0828.6,5.00,000.00,027.6,025.4,000.0,036.1,029.2,19.6,0000.0,0008.24,0002.51,0001.70
2023-09-19 01:11:00,SystemResetWarning,0828.6,5.00,000.00,027.7,025.7,000.0,036.1,029.3,19.5,0000.0,0008.20,0002.50,0001.70
2023-09-19 01:12:00,SystemResetWarning,0828.6,5.00,000.00,027.7,025.9,000.0,036.1,029.3,19.7,0000.0,0007.76,0002.45,0001.71
2023-09-19 01:13:00,SystemResetWarning,0828.6,5.00,000.00,027.7,026.1,000.0,036.1,029.4,19.5,0000.0,0007.76,0002.50,0001.70
2023-09-19 01:14:00,SystemResetWarning,0828.7,5.00,000.00,027.7,026.3,000.0,036.1,029.5,19.5,0000.0,0007.78,0002.51,0001.71
2023-09-19 01:15:00,SystemResetWarning,0828.6,5.00,000.00,027.8,026.4,000.0,036.1,029.5,19.6,0000.0,0007.80,0002.48,0001.70
2023-09-19 01:16:00,SystemResetWarning,0828.6,5.01,000.00,027.8,026.5,000.0,036.1,029.5,19.7,0000.0,0007.40,0002.45,0001.71
2023-09-19 01:17:00,SystemResetWarning,0828.6,5.00,000.00,027.8,026.7,000.0,036.1,029.6,19.6,0000.0,0007.69,0002.45,0001.71
2023-09-19 01:18:00,SystemResetWarning,0828.6,4.99,000.00,027.9,026.7,000.0,036.1,029.6,19.5,0000.0,0006.93,0002.40,0001.71
2023-09-19 01:19:00,SystemResetWarning,0828.7,5.00,000.00,027.9,026.8,000.0,036.2,029.6,19.5,0000.0,0007.22,0002.39,0001.71
2023-09-19 01:20:00,SystemResetWarning,0828.6,5.00,000.00,028.0,026.8,000.0,036.2,029.7,19.4,0000.0,0007.59,0002.35,0001.71
2023-09-19 01:21:00,SystemResetWarning,0828.6,4.99,000.00,027.9,025.6,000.0,036.2,029.3,19.4,0000.0,0007.83,0002.32,0001.71
2023-09-19 01:22:00,SystemResetWarning,0828.6,5.01,000.00,027.8,024.4,000.0,036.1,029.0,19.5,0000.0,0007.08,0002.31,0001.72
2023-09-19 01:23:00,SystemResetWarning,0828.6,5.01,000.00,027.7,024.4,000.0,036.1,029.0,19.7,0000.0,0006.81,0002.33,0001.72
2023-09-19 01:24:00,SystemResetWarning,0828.6,5.00,000.00,027.7,024.6,000.0,036.1,029.0,19.8,0000.0,0007.11,0002.38,0001.72
2023-09-19 01:25:00,SystemResetWarning,0828.6,4.99,000.00,027.6,024.9,000.0,036.1,029.1,19.8,0000.0,0007.19,0002.42,0001.71
2023-09-19 01:26:00,SystemResetWarning,0828.6,5.00,000.00,027.6,025.3,000.0,036.1,029.1,19.8,0000.0,0006.86,0002.38,0001.71
2023-09-19 01:27:00,SystemResetWarning,0828.6,5.00,000.00,027.7,025.6,000.0,036.1,029.2,19.9,0000.0,0006.82,0002.38,0001.72
2023-09-19 01:28:00,SystemResetWarning,0828.6,5.01,000.00,027.7,025.8,000.0,036.1,029.2,19.7,0000.0,0006.22,0002.39,0001.71
2023-09-19 01:29:00,SystemResetWarning,0828.6,4.99,000.00,027.7,026.0,000.0,036.1,029.3,19.8,0000.0,0005.82,0002.38,0001.72
2023-09-19 01:30:00,SystemResetWarning,0828.6,4.99,000.00,027.7,026.2,000.0,036.1,029.4,19.8,0000.0,0005.55,0002.35,0001.71
2023-09-19 01:31:00,SystemResetWarning,0828.6,5.01,000.00,027.7,026.3,000.0,036.1,029.4,19.7,0000.0,0004.91,0002.34,0001.71
2023-09-19 01:32:00,SystemResetWarning,0828.6,5.01,000.00,027.8,026.5,000.0,036.1,029.4,19.6,0000.0,0004.03,0002.32,0001.71
2023-09-19 01:33:00,SystemResetWarning,0828.6,4.99,000.00,027.8,026.6,000.0,036.1,029.5,19.6,0000.0,0004.07,0002.32,0001.70
2023-09-19 01:34:00,SystemResetWarning,0828.6,5.00,000.00,027.8,026.6,000.0,036.1,029.6,19.6,0000.0,0004.15,0002.33,0001.69
2023-09-19 01:35:00,SystemResetWarning,0828.6,4.99,000.00,027.9,026.7,000.0,036.1,029.6,19.5,0000.0,0003.90,0002.29,0001.70
2023-09-19 01:36:00,SystemResetWarning,0828.6,5.00,000.00,027.9,026.8,000.0,036.2,029.7,19.4,0000.0,0003.54,0002.20,0001.70
2023-09-19 01:37:00,SystemResetWarning,0828.7,5.00,000.00,028.0,026.9,000.0,036.2,029.7,19.4,0000.0,0003.48,0002.20,0001.70
2023-09-19 01:38:00,SystemResetWarning,0828.7,5.00,000.00,028.0,026.9,000.0,036.2,029.7,19.4,0000.0,0003.40,0002.17,0001.68
2023-09-19 01:39:00,SystemResetWarning,0828.6,4.99,000.00,028.0,025.9,000.0,036.2,029.4,19.3,0000.0,0003.45,0002.15,0001.68
2023-09-19 01:40:00,SystemResetWarning,0828.6,5.01,000.00,027.9,024.5,000.0,036.2,029.1,19.3,0000.0,0003.23,0002.16,0001.67
2023-09-19 01:41:00,SystemResetWarning,0828.6,5.01,000.00,027.8,024.4,000.0,036.1,029.1,19.4,0000.0,0003.35,0002.20,0001.65
2023-09-19 01:42:00,SystemResetWarning,0828.6,5.00,000.00,027.7,024.6,000.0,036.1,029.0,19.4,0000.0,0003.62,0002.24,0001.65
2023-09-19 01:43:00,SystemResetWarning,0828.6,5.01,000.00,027.7,024.9,000.0,036.1,029.1,19.4,0000.0,0003.78,0002.25,0001.63
2023-09-19 01:44:00,SystemResetWarning,0828.6,5.00,000.00,027.7,025.3,000.0,036.1,029.2,19.4,0000.0,0004.39,0002.25,0001.62
2023-09-19 01:45:00,SystemResetWarning,0828.6,5.00,000.00,027.7,025.6,000.0,036.1,029.3,19.3,0000.0,0004.99,0002.19,0001.61
2023-09-19 01:46:00,SystemResetWarning,0828.6,4.99,000.00,027.7,025.8,000.0,036.1,029.3,19.3,0000.0,0004.96,0002.18,0001.59
2023-09-19 01:47:00,SystemResetWarning,0828.6,5.00,000.00,027.7,026.0,000.0,036.1,029.3,19.3,0000.0,0004.95,0002.16,0001.58
2023-09-19 01:48:00,SystemResetWarning,0828.6,5.00,000.00,027.8,026.2,000.0,036.1,029.4,19.2,0000.0,0004.86,0002.12,0001.55
2023-09-19 01:49:00,SystemResetWarning,0828.7,5.00,000.00,027.8,026.4,000.0,036.1,029.5,19.2,0000.0,0004.90,0002.12,0001.55
2023-09-19 01:50:00,SystemResetWarning,0828.7,5.00,000.00,027.8,026.5,000.0,036.1,029.5,19.0,0000.0,0004.71,0002.09,0001.55
2023-09-19 01:51:00,SystemResetWarning,0828.7,4.99,000.00,027.8,026.6,000.0,036.2,029.6,19.0,0000.0,0004.68,0002.07,0001.54
2023-09-19 01:52:00,SystemResetWarning,0828.7,4.99,000.00,027.9,026.7,000.0,036.2,029.6,19.1,0000.0,0004.58,0002.00,0001.53
2023-09-19 01:53:00,SystemResetWarning,0828.7,5.00,000.00,027.9,026.8,000.0,036.2,029.6,19.0,0000.0,0004.41,0001.95,0001.53
2023-09-19 01:54:00,SystemResetWarning,0828.7,5.00,000.00,028.0,026.9,000.0,036.2,029.7,19.1,0000.0,0004.41,0001.96,0001.53
2023-09-19 01:55:00,SystemResetWarning,0828.7,5.00,000.00,028.0,026.7,000.0,036.2,029.7,19.2,0000.0,0004.06,0001.96,0001.51
2023-09-19 01:56:00,SystemResetWarning,0828.7,5.00,000.00,027.9,025.2,000.0,036.2,029.3,19.4,0000.0,0003.22,0001.95,0001.49
2023-09-19 01:57:00,SystemResetWarning,0828.7,5.00,000.00,027.8,024.4,000.0,036.1,029.2,19.6,0000.0,0003.08,0001.90,0001.48
2023-09-19 01:58:00,SystemResetWarning,0828.7,5.01,000.00,027.7,024.5,000.0,036.1,029.1,19.7,0000.0,0003.12,0001.90,0001.46
2023-09-19 01:59:00,SystemResetWarning,0828.7,5.02,000.00,027.7,024.8,000.0,036.1,029.0,19.8,0000.0,0003.15,0001.91,0001.46
